SCP
0 0 0 0 0 0 0 0 0 0 0 0 0 0 0 0 0 0 0 0 0 0 0 0 0 0 0 0 0 0 0 0 0 0 0 0 0 0 0 0 0 0 0 0 0 0 0 0 0
0 0 0 0 0 0 0 -0 0 0 0 0 0 0 0 0 0 0 0 0 0 0 0 0 0 0 0 0 0 0 0 0 0 0 0 0 0 0 0 0 0 0 0 0 0 0 0 0 0
0 0 0 0 0 0 0 0 0 0 0 0 0 0 0 0 0 0 0 0 0 0 0 0 0 0 0 0 0 0 0 0 0 0 0 0 0 0 0 0 0 0 0 0 0 0 0 0 0
0 0 0 0 0 0 0 0 0 0 0 0 0 0 0 0 0 0 0 0 0 0 0 0 0 0 0 0 0 0 0 0 0 0 0 0 0 0 0 0 0 0 0 0 0 0 0 0 0
0 0 0 0 0 0 0 0 0 0 0 0 0 0 0 0 0 0 0 0 0 0 0 0 0 0 0 0 0 0 0 0 0 0 0 0 0 0 0 0 0 0 0 0 0 0 0 0 0
0 0 0 0 0 0 0 0 0 0 0 0 0 0 0 0 0 0 0 0 0 0 0 0 0 0 0 0 0 0 0 0 0 0 0 0 0 0 0 0 0 0 0 0 0 0 0 0 0
0 0 0 0 0 0 0 0 0 0 0 0 0 0 0 0 0 0 0 0 0 0 0 0 0 0 0 0 0 0 0 0 0 0 0 0 0 0 0 0 0 0 0 0 0 0 0 0 0
0 0 0 0 0 0 0 0 0 0 0 0 0 0 0 0 0 0 0 0 0 0 0 0 0 0 0 0 0 0 0 0 0 0 0 0 0 0 0 0 0 0 0 0 0 0 0 0 0
0 0 0 0 0 0 0 0 0 0 0 0 0 0 0 0 0 0 0 0 0 0 0 0 0 0 0 0 0 0 0 0 0 0 0 0 0 0 0 0 0 0 0 0 0 0 0 0 0
0 0 0 0 0 0 0 0 0 0 0 0 0 0 0 0 0 0 0 0 0 0 0 0 0 0 0 0 0 0 0 0 0 0 0 0 0 0 0 0 0 0 0 0 0 0 0 0 0
0 0 0 0 0 0 0 0 0 0 0 0 0 0 0 0 0 0 0 0 0 0 0 0 0 0 0 0 0 0 0 0 0 0 0 0 0 0 0 0 0 0 0 0 0 0 0 0 0
0 0 0 0 0 0 0 0 0 0 0 0 0 0 0 0 0 0 0 0 0 0 0 0 0 0 0 0 0 0 0 0 0 0 0 0 0 0 0 0 0 0 0 0 0 0 0 0 0
0 0 0 0 0 0 0 0 0 0 0 0 0 0 0 0 0 0 0 0 0 0 0 0 0 0 0 0 0 0 0 0 0 0 0 0 0 0 0 0 0 0 0 0 0 0 0 0 0
0 0 0 0 0 0 0 0 0 0 0 0 0 0 0 0 0 0 0 0 0 0 0 0 0 0 0 0 0 0 0 0 0 0 0 0 0 0 0 0 0 0 0 0 0 0 0 0 0
0 0 0 0 0 0 0 0 0 0 0 0 0 0 0 0 0 0 0 0 0 0 0 0 0 0 0 0 0 0 0 0 0 0 0 0 0 0 0 0 0 0 0 0 0 0 0 0 0
0 0 0 0 0 0 0 0 0 0 0 0 0 0 0 0 0 0 0 0 0 0 0 0 0 0 0 0 0 0 0 0 0 0 0 0 0 0 0 0 0 0 0 0 0 0 0 0 0
0 0 0 0 0 0 0 0 0 0 0 0 0 0 0 0 0 0 0 0 0 0 0 0 0 0 0 0 0 0 0 0 0 0 0 0 0 0 0 0 0 0 0 0 0 0 0 0 0
0 0 0 0 0 0 0 0 0 0 0 0 0 0 0 0 0 0 0 0 0 0 0 0 0 0 0 0 0 0 0 0 0 0 0 0 0 0 0 0 0 0 0 0 0 0 0 0 0
0 0 0 0 0 0 0 0 0 0 0 0 0 0 0 0 0 0 0 0 0 0 0 0 0 0 0 0 0 0 0 0 0 0 0 0 0 0 0 0 0 0 0 0 0 0 0 0 -0
0 0 0 0 0 0 0 0 0 0 0 0 0 0 0 0 0 0 0 0 0 0 0 0 0 0 0 0 0 0 0 0 0 0 0 0 0 0 0 0 0 0 0 0 0 0 0 -0 -0
0 0 0 0 0 0 0 0 0 0 0 0 0 0 0 0 0 0 0 0 0 0 0 0 0 0 0 0 0 0 0 0 0 0 0 0 0 0 0 0 0 0 0 0 0 0 0 0 -0
0 0 0 0 0 0 0 0 0 0 0 0 0 0 0 0 0 0 0 0 0 0 0 0 0 0 0 0 0 0 0 0 0 0 0 0 0 0 0 0 0 0 0 0 0 0 0 0 0
0 0 0 0 0 0 0 0 0 0 0 0 0 0 0 0 0 0 0 0 0 0 0 0 0 0 0 0 0 0 0 0 0 0 0 0 0 0 0 0 0 0 0 0 0 0 0 0 0
0 0 0 0 0 0 0 0 0 0 0 0 0 0 0 0 0 0 0 0 0 0 0 0 0 0 0 0 0 0 0 0 0 0 0 0 0 0 0 0 0 0 0 0 0 0 0 0 0
0 0 0 0 0 0 0 0 0 0 0 0 0 0 0 0 0 0 0 0 0 0 0 0 0 0 0 0 0 0 0 0 0 0 0 0 0 0 0 0 0 0 0 0 0 0 0 0 0
0 0 0 0 0 0 0 0 0 0 0 0 0 0 0 0 0 0 0 0 0 0 0 0 0 0 0 0 0 0 0 0 0 0 0 0 0 0 0 0 0 0 0 0 0 0 0 0 0
0 0 0 0 0 0 0 0 0 0 0 0 0 0 0 0 0 0 0 0 0 0 0 0 0 0 0 0 0 0 0 0 0 0 0 0 0 0 0 0 0 0 0 0 0 0 0 0 0
0 0 0 0 0 0 0 0 0 0 0 0 0 0 0 0 0 0 0 0 0 0 0 0 0 0 0 0 0 0 0 0 0 0 0 0 0 0 0 0 0 0 0 0 0 0 0 0 0
0 0 0 0 0 0 0 0 0 0 0 0 0 0 0 0 0 0 0 0 0 0 0 0 0 0 0 0 0 0 0 0 0 0 0 0 0 0 0 0 0 0 0 0 0 0 0 0 0
0 0 0 0 0 0 0 0 0 0 0 0 0 0 0 0 0 0 0 0 0 0 0 0 0 0 0 0 0 0 0 0 0 0 0 0 0 0 0 0 0 0 0 0 0 0 0 0 0
Wind_Speed_500mb
14 9 5 6 4 7 13 10 7 3 4 8 10 10 12 25 10 6 20 30 34 37 36 32 30 25 19 16 16 15 17 12 11 12 12 10 9 8 6 4 2 5 9 13 16 17 16 16 18
11 6 3 10 5 10 11 20 15 8 18 13 8 8 8 11 13 17 11 42 40 34 36 32 27 21 17 12 10 11 13 16 15 12 11 10 7 4 1 3 7 11 14 16 17 18 18 18 19
8 13 5 6 8 14 11 14 15 22 12 5 6 11 8 9 15 16 12 44 37 40 31 30 29 21 16 11 8 11 11 10 9 9 7 6 3 1 4 6 10 13 17 19 19 20 19 19 19
9 4 11 7 18 17 22 13 18 17 6 2 4 15 15 21 9 11 34 45 37 36 30 25 28 21 17 13 12 11 15 13 11 7 3 3 1 3 7 11 13 17 20 23 25 25 25 25 23
17 11 9 10 21 24 6 15 16 9 6 21 6 12 10 9 13 13 36 38 35 32 28 29 23 18 13 16 13 11 9 8 7 6 3 3 6 9 12 15 18 21 22 24 24 25 27 28 27
8 9 7 17 21 25 11 16 6 8 6 10 1 9 10 10 22 23 24 20 23 27 26 25 20 18 17 12 10 10 9 8 4 4 5 7 9 12 15 17 20 22 23 23 24 23 23 24 25
6 5 13 19 11 12 9 14 6 19 10 8 5 7 13 21 22 32 30 27 11 21 23 24 20 17 14 10 11 11 8 6 2 2 4 9 12 15 17 19 19 21 22 23 23 22 23 22 21
6 5 11 7 11 3 11 5 9 12 13 8 5 6 11 28 32 36 36 31 28 19 19 21 22 20 18 16 12 8 4 2 1 3 6 9 12 15 17 19 21 21 22 22 23 22 22 22 21
4 5 8 7 3 10 11 7 6 8 3 10 9 7 15 23 33 35 35 32 28 25 21 22 23 21 18 16 14 10 8 5 2 6 9 11 14 15 17 19 21 22 23 23 23 23 23 24 25
7 4 12 16 18 13 10 10 12 6 14 12 9 16 22 22 26 29 31 33 32 30 28 24 23 20 20 17 13 10 6 3 5 8 12 14 15 17 19 17 18 20 23 24 26 26 27 27 27
5 4 11 21 19 15 13 8 5 11 7 27 13 24 21 24 25 24 23 23 25 29 28 27 26 22 20 15 11 8 5 5 6 10 13 15 17 18 20 22 23 24 23 25 25 26 28 30 32
4 7 8 11 11 10 10 18 12 9 5 4 10 8 16 21 23 26 25 26 26 30 30 29 28 23 19 14 13 9 6 8 9 11 14 17 18 19 21 21 22 25 26 28 29 30 29 29 30
5 12 6 5 7 8 12 13 9 19 7 9 8 14 14 17 20 21 24 25 26 32 31 31 28 26 22 18 14 10 9 9 10 12 15 17 20 22 24 25 26 29 29 31 31 32 31 31 32
8 6 7 4 5 5 8 9 7 8 4 5 10 10 11 14 16 20 26 31 32 34 32 30 33 29 25 20 15 11 8 9 11 15 18 21 23 22 23 23 26 28 29 30 31 32 33 33 35
7 6 6 6 6 3 10 7 11 7 4 6 2 3 12 13 16 19 23 27 35 36 31 32 33 32 27 22 17 12 11 12 14 16 20 22 22 20 20 23 26 28 30 29 29 30 33 35 36
6 4 6 7 17 1 7 9 12 7 0 10 5 1 3 3 4 12 22 26 30 33 33 34 35 33 29 23 18 15 13 14 16 21 25 24 21 20 22 26 29 30 30 29 29 32 36 39 42
3 4 6 9 8 7 6 4 10 12 9 8 12 3 7 4 1 8 14 23 22 29 32 35 36 33 29 24 20 17 17 17 19 23 26 23 22 23 27 31 33 31 28 29 31 35 41 45 46
3 5 4 6 8 10 12 16 15 26 22 15 21 21 21 18 11 19 19 21 28 32 33 34 33 32 29 24 22 21 20 20 21 24 23 23 24 28 31 34 33 28 26 30 34 38 41 45 51
12 9 10 9 6 8 7 11 9 19 22 21 27 25 22 19 15 16 10 24 23 32 35 37 32 31 29 25 24 22 21 22 22 22 22 26 30 32 33 30 27 25 28 33 37 41 44 45 50
7 5 4 5 2 6 11 15 16 13 16 19 20 26 24 22 21 23 18 5 19 26 31 32 29 29 27 24 22 24 22 21 23 28 29 32 32 32 30 26 24 25 30 34 38 41 44 44 48
11 6 7 4 13 4 13 6 14 13 24 26 27 26 27 27 25 25 23 17 8 17 25 29 29 27 25 25 27 25 23 22 24 27 32 37 36 34 29 28 26 29 33 36 37 39 41 46 45
5 10 7 6 8 5 7 6 11 16 14 23 27 27 26 26 26 26 24 17 18 16 18 24 26 25 25 25 25 23 21 22 24 35 43 45 39 33 30 26 28 31 34 36 38 39 41 44 46
4 5 6 3 2 7 3 6 8 21 14 15 21 26 28 28 28 28 26 25 18 11 12 15 18 18 20 21 19 18 19 20 28 35 41 41 37 31 28 27 29 32 35 37 38 38 41 44 46
7 2 3 3 3 3 6 6 8 9 8 13 21 25 24 26 26 25 23 20 22 19 14 8 2 6 11 13 15 18 18 23 32 38 41 41 39 36 29 29 31 34 36 38 40 42 44 47 47
1 1 3 7 5 8 8 3 14 10 11 24 22 21 21 20 22 22 22 21 18 15 10 6 2 5 10 14 19 22 25 30 36 38 38 38 37 36 35 36 35 37 40 42 44 45 46 47 49
3 3 7 8 3 5 6 10 9 14 25 28 25 21 19 20 20 21 22 22 22 20 14 8 6 10 17 23 28 33 39 45 46 45 42 40 40 40 41 43 41 41 44 46 47 48 48 49 50
5 2 5 10 2 6 7 8 4 11 10 24 20 15 16 18 18 19 20 21 21 21 22 20 17 16 17 20 25 31 39 44 49 51 49 49 47 47 49 51 50 49 49 49 50 50 51 51 52
2 2 6 4 1 8 9 8 10 12 12 7 12 10 14 15 15 15 16 18 17 18 21 24 25 27 30 31 31 32 34 37 41 46 51 53 57 58 57 59 59 56 56 54 53 52 51 53 51
2 3 1 4 5 9 5 11 4 14 22 19 18 9 12 12 11 10 11 12 16 20 28 34 36 37 41 43 44 43 42 44 44 45 45 48 52 56 62 64 65 65 64 60 56 54 53 54 53
6 4 9 7 10 5 3 15 10 3 35 39 23 14 9 6 4 3 8 14 19 26 34 39 41 43 46 48 50 51 53 53 55 54 51 51 54 53 54 59 68 71 69 67 63 57 56 54 55
Wind_Direction_500mb
259 260 297 317 265 206 260 227 196 166 111 48 15 23 84 53 41 108 174 176 156 148 147 157 156 158 162 173 179 192 187 177 170 155 145 133 137 139 143 169 251 299 313 316 322 333 335 331 327
248 201 209 283 245 261 242 222 149 44 85 95 50 2 36 83 76 134 153 166 170 154 165 164 165 165 165 179 198 213 207 183 174 158 156 148 147 149 165 281 298 303 308 314 317 320 322 321 321
187 161 236 210 224 251 279 67 55 86 80 53 108 67 38 68 104 146 158 164 171 170 176 155 171 170 172 176 202 217 215 213 196 173 174 147 147 275 302 305 306 312 314 318 321 321 318 316 317
107 169 275 257 255 233 239 61 63 107 93 136 358 107 94 102 159 205 163 173 176 176 172 178 181 175 175 198 228 213 215 193 192 163 151 105 355 329 320 319 320 317 317 318 317 318 317 314 311
160 215 233 224 256 274 85 50 22 328 271 146 177 143 83 137 159 149 161 177 186 184 185 200 202 198 200 218 227 221 194 172 140 124 88 5 342 338 331 324 318 317 316 316 316 314 315 317 314
226 266 240 231 241 232 104 104 14 259 309 92 39 156 108 130 143 132 140 163 193 197 190 198 207 210 220 214 181 169 158 131 101 62 18 349 336 330 325 322 321 322 322 322 322 321 319 318 320
274 198 263 275 308 3 75 65 288 268 208 104 54 49 124 139 162 148 140 146 155 194 197 197 195 191 180 178 161 146 137 129 108 356 330 328 329 328 330 328 328 329 326 326 329 327 325 324 323
282 327 264 242 286 147 49 47 4 333 53 95 99 44 141 167 165 151 163 161 174 167 187 184 179 172 173 179 179 175 181 183 256 329 325 329 330 332 331 332 330 332 332 331 330 328 327 326 326
315 289 265 264 52 73 71 345 98 317 14 72 67 86 135 172 171 169 169 163 175 168 190 175 183 181 184 182 179 174 192 219 307 329 329 332 332 332 331 330 331 331 332 332 331 331 328 326 323
249 265 17 17 42 24 52 352 13 341 184 149 132 113 164 173 170 175 178 182 186 184 193 192 190 188 180 186 187 192 211 256 315 327 331 332 330 329 331 331 332 328 329 329 329 329 328 325 322
195 319 357 48 34 12 352 306 18 309 298 33 101 158 176 175 177 181 187 202 201 199 202 197 198 193 192 189 193 207 233 271 310 320 327 327 328 329 330 334 335 333 333 331 328 325 324 324 324
277 61 17 29 18 4 2 337 307 241 51 95 116 146 186 188 190 189 192 201 206 211 213 208 208 207 210 206 214 228 251 286 311 318 324 328 329 331 329 331 331 331 333 331 330 328 328 327 326
245 101 54 27 15 359 330 284 295 285 283 276 268 148 190 198 203 203 201 201 219 220 223 213 213 213 212 215 222 237 262 298 318 326 328 326 326 325 327 329 330 330 334 332 331 330 330 330 330
23 67 86 39 23 333 336 301 6 95 170 220 229 242 205 221 217 212 212 202 217 228 229 215 214 216 217 221 228 241 268 298 312 319 320 320 317 318 319 320 322 326 328 328 328 328 331 332 332
140 159 181 79 355 340 323 264 220 203 352 197 214 221 207 222 213 224 236 226 223 231 226 224 217 220 222 227 233 245 270 290 307 315 319 318 313 313 315 319 322 328 327 329 330 331 331 331 331
218 235 189 61 344 204 304 122 105 116 138 115 126 67 105 42 289 224 220 242 221 232 226 226 221 222 225 228 236 249 269 288 305 316 321 320 320 319 322 324 326 330 329 330 333 333 332 332 331
198 265 226 132 38 303 237 359 165 179 199 311 332 351 106 100 19 309 265 233 230 224 227 229 222 221 223 229 239 254 269 285 301 312 317 321 321 320 322 323 323 325 326 330 335 337 334 332 332
242 223 211 59 8 332 278 269 343 13 17 17 63 47 36 24 325 249 216 217 217 208 219 234 227 220 222 232 244 256 268 281 296 307 311 316 316 317 318 317 318 323 329 333 334 334 335 334 332
331 5 11 92 34 329 297 336 17 16 41 51 68 65 52 44 18 342 282 225 215 203 205 223 229 221 222 233 245 257 268 275 290 301 309 316 316 316 315 318 319 323 329 331 333 334 335 336 334
9 37 20 98 23 347 333 309 69 63 73 66 64 64 55 41 35 22 28 142 196 202 201 212 229 223 223 235 248 249 262 278 301 308 311 313 312 311 311 312 315 321 327 330 331 332 333 334 337
47 21 27 352 329 206 305 236 121 104 89 72 57 60 54 45 40 39 53 69 118 184 192 200 222 229 226 233 241 249 259 276 297 300 307 312 314 311 309 311 314 319 324 326 329 329 331 332 335
132 355 36 359 13 239 23 254 159 151 127 81 57 55 52 50 43 49 51 83 122 142 169 190 211 223 232 241 249 255 267 290 300 307 312 313 312 307 304 303 310 315 319 323 324 326 329 327 328
116 18 41 68 314 32 321 82 212 147 127 88 74 67 62 58 56 54 50 57 76 103 169 191 210 225 238 252 258 260 275 289 305 309 310 307 304 301 296 298 304 310 314 317 320 322 321 323 322
116 336 37 222 147 5 234 112 222 186 121 110 89 74 66 62 61 62 66 60 63 69 82 95 171 252 264 263 261 270 281 301 310 315 313 310 306 303 297 297 301 304 309 313 316 318 321 321 319
188 19 332 352 359 236 301 345 244 129 92 120 109 85 71 64 58 62 62 61 65 66 62 59 7 299 286 283 279 271 277 292 304 309 310 306 300 297 295 294 298 301 307 310 313 314 314 315 314
49 124 149 220 227 290 351 238 268 116 112 111 103 91 75 60 58 55 54 51 51 51 50 38 338 297 286 279 274 272 280 289 295 298 302 304 300 295 290 289 294 298 301 303 305 307 309 311 312
197 56 14 94 50 47 217 274 131 144 164 119 94 82 73 66 63 58 54 52 45 38 31 23 12 358 338 321 304 294 291 292 292 290 290 292 294 290 287 284 285 288 291 295 299 301 305 307 309
136 129 59 333 56 276 276 271 236 186 220 135 111 85 72 79 75 66 55 45 29 16 8 358 352 345 338 330 324 321 317 312 306 299 295 290 287 287 286 284 282 282 284 287 291 295 299 303 303
129 234 338 82 160 197 276 258 306 215 180 151 165 135 90 82 70 52 29 11 358 342 340 338 334 329 323 318 314 311 308 307 306 306 306 303 295 291 285 283 282 281 280 281 284 289 294 298 300
359 299 191 144 259 223 166 270 325 189 140 149 159 149 139 116 95 19 342 333 327 327 328 328 327 326 323 319 316 312 309 302 298 299 302 304 304 303 300 289 282 279 278 279 281 285 289 293 296
Wind_Speed_850mb
14 9 5 6 4 7 13 10 7 3 4 8 10 10 12 25 10 6 20 30 34 37 36 32 30 25 19 16 16 15 17 12 11 12 12 10 9 8 6 4 2 5 9 13 16 17 16 16 18
11 6 3 10 5 10 11 20 15 8 18 13 8 8 8 11 13 17 11 42 40 34 36 32 27 21 17 12 10 11 13 16 15 12 11 10 7 4 1 3 7 11 14 16 17 18 18 18 19
8 13 5 6 8 14 11 14 15 22 12 5 6 11 8 9 15 16 12 44 37 40 31 30 29 21 16 11 8 11 11 10 9 9 7 6 3 1 4 6 10 13 17 19 19 20 19 19 19
9 4 11 7 18 17 22 13 18 17 6 2 4 15 15 21 9 11 34 45 37 36 30 25 28 21 17 13 12 11 15 13 11 7 3 3 1 3 7 11 13 17 20 23 25 25 25 25 23
17 11 9 10 21 24 6 15 16 9 6 21 6 12 10 9 13 13 36 38 35 32 28 29 23 18 13 16 13 11 9 8 7 6 3 3 6 9 12 15 18 21 22 24 24 25 27 28 27
8 9 7 17 21 25 11 16 6 8 6 10 1 9 10 10 22 23 24 20 23 27 26 25 20 18 17 12 10 10 9 8 4 4 5 7 9 12 15 17 20 22 23 23 24 23 23 24 25
6 5 13 19 11 12 9 14 6 19 10 8 5 7 13 21 22 32 30 27 11 21 23 24 20 17 14 10 11 11 8 6 2 2 4 9 12 15 17 19 19 21 22 23 23 22 23 22 21
6 5 11 7 11 3 11 5 9 12 13 8 5 6 11 28 32 36 36 31 28 19 19 21 22 20 18 16 12 8 4 2 1 3 6 9 12 15 17 19 21 21 22 22 23 22 22 22 21
4 5 8 7 3 10 11 7 6 8 3 10 9 7 15 23 33 35 35 32 28 25 21 22 23 21 18 16 14 10 8 5 2 6 9 11 14 15 17 19 21 22 23 23 23 23 23 24 25
7 4 12 16 18 13 10 10 12 6 14 12 9 16 22 22 26 29 31 33 32 30 28 24 23 20 20 17 13 10 6 3 5 8 12 14 15 17 19 17 18 20 23 24 26 26 27 27 27
5 4 11 21 19 15 13 8 5 11 7 27 13 24 21 24 25 24 23 23 25 29 28 27 26 22 20 15 11 8 5 5 6 10 13 15 17 18 20 22 23 24 23 25 25 26 28 30 32
4 7 8 11 11 10 10 18 12 9 5 4 10 8 16 21 23 26 25 26 26 30 30 29 28 23 19 14 13 9 6 8 9 11 14 17 18 19 21 21 22 25 26 28 29 30 29 29 30
5 12 6 5 7 8 12 13 9 19 7 9 8 14 14 17 20 21 24 25 26 32 31 31 28 26 22 18 14 10 9 9 10 12 15 17 20 22 24 25 26 29 29 31 31 32 31 31 32
8 6 7 4 5 5 8 9 7 8 4 5 10 10 11 14 16 20 26 31 32 34 32 30 33 29 25 20 15 11 8 9 11 15 18 21 23 22 23 23 26 28 29 30 31 32 33 33 35
7 6 6 6 6 3 10 7 11 7 4 6 2 3 12 13 16 19 23 27 35 36 31 32 33 32 27 22 17 12 11 12 14 16 20 22 22 20 20 23 26 28 30 29 29 30 33 35 36
6 4 6 7 17 1 7 9 12 7 0 10 5 1 3 3 4 12 22 26 30 33 33 34 35 33 29 23 18 15 13 14 16 21 25 24 21 20 22 26 29 30 30 29 29 32 36 39 42
3 4 6 9 8 7 6 4 10 12 9 8 12 3 7 4 1 8 14 23 22 29 32 35 36 33 29 24 20 17 17 17 19 23 26 23 22 23 27 31 33 31 28 29 31 35 41 45 46
3 5 4 6 8 10 12 16 15 26 22 15 21 21 21 18 11 19 19 21 28 32 33 34 33 32 29 24 22 21 20 20 21 24 23 23 24 28 31 34 33 28 26 30 34 38 41 45 51
12 9 10 9 6 8 7 11 9 19 22 21 27 25 22 19 15 16 10 24 23 32 35 37 32 31 29 25 24 22 21 22 22 22 22 26 30 32 33 30 27 25 28 33 37 41 44 45 50
7 5 4 5 2 6 11 15 16 13 16 19 20 26 24 22 21 23 18 5 19 26 31 32 29 29 27 24 22 24 22 21 23 28 29 32 32 32 30 26 24 25 30 34 38 41 44 44 48
11 6 7 4 13 4 13 6 14 13 24 26 27 26 27 27 25 25 23 17 8 17 25 29 29 27 25 25 27 25 23 22 24 27 32 37 36 34 29 28 26 29 33 36 37 39 41 46 45
5 10 7 6 8 5 7 6 11 16 14 23 27 27 26 26 26 26 24 17 18 16 18 24 26 25 25 25 25 23 21 22 24 35 43 45 39 33 30 26 28 31 34 36 38 39 41 44 46
4 5 6 3 2 7 3 6 8 21 14 15 21 26 28 28 28 28 26 25 18 11 12 15 18 18 20 21 19 18 19 20 28 35 41 41 37 31 28 27 29 32 35 37 38 38 41 44 46
7 2 3 3 3 3 6 6 8 9 8 13 21 25 24 26 26 25 23 20 22 19 14 8 2 6 11 13 15 18 18 23 32 38 41 41 39 36 29 29 31 34 36 38 40 42 44 47 47
1 1 3 7 5 8 8 3 14 10 11 24 22 21 21 20 22 22 22 21 18 15 10 6 2 5 10 14 19 22 25 30 36 38 38 38 37 36 35 36 35 37 40 42 44 45 46 47 49
3 3 7 8 3 5 6 10 9 14 25 28 25 21 19 20 20 21 22 22 22 20 14 8 6 10 17 23 28 33 39 45 46 45 42 40 40 40 41 43 41 41 44 46 47 48 48 49 50
5 2 5 10 2 6 7 8 4 11 10 24 20 15 16 18 18 19 20 21 21 21 22 20 17 16 17 20 25 31 39 44 49 51 49 49 47 47 49 51 50 49 49 49 50 50 51 51 52
2 2 6 4 1 8 9 8 10 12 12 7 12 10 14 15 15 15 16 18 17 18 21 24 25 27 30 31 31 32 34 37 41 46 51 53 57 58 57 59 59 56 56 54 53 52 51 53 51
2 3 1 4 5 9 5 11 4 14 22 19 18 9 12 12 11 10 11 12 16 20 28 34 36 37 41 43 44 43 42 44 44 45 45 48 52 56 62 64 65 65 64 60 56 54 53 54 53
6 4 9 7 10 5 3 15 10 3 35 39 23 14 9 6 4 3 8 14 19 26 34 39 41 43 46 48 50 51 53 53 55 54 51 51 54 53 54 59 68 71 69 67 63 57 56 54 55
Wind_Direction_850mb
259 260 297 317 265 206 260 227 196 166 111 48 15 23 84 53 41 108 174 176 156 148 147 157 156 158 162 173 179 192 187 177 170 155 145 133 137 139 143 169 251 299 313 316 322 333 335 331 327
248 201 209 283 245 261 242 222 149 44 85 95 50 2 36 83 76 134 153 166 170 154 165 164 165 165 165 179 198 213 207 183 174 158 156 148 147 149 165 281 298 303 308 314 317 320 322 321 321
187 161 236 210 224 251 279 67 55 86 80 53 108 67 38 68 104 146 158 164 171 170 176 155 171 170 172 176 202 217 215 213 196 173 174 147 147 275 302 305 306 312 314 318 321 321 318 316 317
107 169 275 257 255 233 239 61 63 107 93 136 358 107 94 102 159 205 163 173 176 176 172 178 181 175 175 198 228 213 215 193 192 163 151 105 355 329 320 319 320 317 317 318 317 318 317 314 311
160 215 233 224 256 274 85 50 22 328 271 146 177 143 83 137 159 149 161 177 186 184 185 200 202 198 200 218 227 221 194 172 140 124 88 5 342 338 331 324 318 317 316 316 316 314 315 317 314
226 266 240 231 241 232 104 104 14 259 309 92 39 156 108 130 143 132 140 163 193 197 190 198 207 210 220 214 181 169 158 131 101 62 18 349 336 330 325 322 321 322 322 322 322 321 319 318 320
274 198 263 275 308 3 75 65 288 268 208 104 54 49 124 139 162 148 140 146 155 194 197 197 195 191 180 178 161 146 137 129 108 356 330 328 329 328 330 328 328 329 326 326 329 327 325 324 323
282 327 264 242 286 147 49 47 4 333 53 95 99 44 141 167 165 151 163 161 174 167 187 184 179 172 173 179 179 175 181 183 256 329 325 329 330 332 331 332 330 332 332 331 330 328 327 326 326
315 289 265 264 52 73 71 345 98 317 14 72 67 86 135 172 171 169 169 163 175 168 190 175 183 181 184 182 179 174 192 219 307 329 329 332 332 332 331 330 331 331 332 332 331 331 328 326 323
249 265 17 17 42 24 52 352 13 341 184 149 132 113 164 173 170 175 178 182 186 184 193 192 190 188 180 186 187 192 211 256 315 327 331 332 330 329 331 331 332 328 329 329 329 329 328 325 322
195 319 357 48 34 12 352 306 18 309 298 33 101 158 176 175 177 181 187 202 201 199 202 197 198 193 192 189 193 207 233 271 310 320 327 327 328 329 330 334 335 333 333 331 328 325 324 324 324
277 61 17 29 18 4 2 337 307 241 51 95 116 146 186 188 190 189 192 201 206 211 213 208 208 207 210 206 214 228 251 286 311 318 324 328 329 331 329 331 331 331 333 331 330 328 328 327 326
245 101 54 27 15 359 330 284 295 285 283 276 268 148 190 198 203 203 201 201 219 220 223 213 213 213 212 215 222 237 262 298 318 326 328 326 326 325 327 329 330 330 334 332 331 330 330 330 330
23 67 86 39 23 333 336 301 6 95 170 220 229 242 205 221 217 212 212 202 217 228 229 215 214 216 217 221 228 241 268 298 312 319 320 320 317 318 319 320 322 326 328 328 328 328 331 332 332
140 159 181 79 355 340 323 264 220 203 352 197 214 221 207 222 213 224 236 226 223 231 226 224 217 220 222 227 233 245 270 290 307 315 319 318 313 313 315 319 322 328 327 329 330 331 331 331 331
218 235 189 61 344 204 304 122 105 116 138 115 126 67 105 42 289 224 220 242 221 232 226 226 221 222 225 228 236 249 269 288 305 316 321 320 320 319 322 324 326 330 329 330 333 333 332 332 331
198 265 226 132 38 303 237 359 165 179 199 311 332 351 106 100 19 309 265 233 230 224 227 229 222 221 223 229 239 254 269 285 301 312 317 321 321 320 322 323 323 325 326 330 335 337 334 332 332
242 223 211 59 8 332 278 269 343 13 17 17 63 47 36 24 325 249 216 217 217 208 219 234 227 220 222 232 244 256 268 281 296 307 311 316 316 317 318 317 318 323 329 333 334 334 335 334 332
331 5 11 92 34 329 297 336 17 16 41 51 68 65 52 44 18 342 282 225 215 203 205 223 229 221 222 233 245 257 268 275 290 301 309 316 316 316 315 318 319 323 329 331 333 334 335 336 334
9 37 20 98 23 347 333 309 69 63 73 66 64 64 55 41 35 22 28 142 196 202 201 212 229 223 223 235 248 249 262 278 301 308 311 313 312 311 311 312 315 321 327 330 331 332 333 334 337
47 21 27 352 329 206 305 236 121 104 89 72 57 60 54 45 40 39 53 69 118 184 192 200 222 229 226 233 241 249 259 276 297 300 307 312 314 311 309 311 314 319 324 326 329 329 331 332 335
132 355 36 359 13 239 23 254 159 151 127 81 57 55 52 50 43 49 51 83 122 142 169 190 211 223 232 241 249 255 267 290 300 307 312 313 312 307 304 303 310 315 319 323 324 326 329 327 328
116 18 41 68 314 32 321 82 212 147 127 88 74 67 62 58 56 54 50 57 76 103 169 191 210 225 238 252 258 260 275 289 305 309 310 307 304 301 296 298 304 310 314 317 320 322 321 323 322
116 336 37 222 147 5 234 112 222 186 121 110 89 74 66 62 61 62 66 60 63 69 82 95 171 252 264 263 261 270 281 301 310 315 313 310 306 303 297 297 301 304 309 313 316 318 321 321 319
188 19 332 352 359 236 301 345 244 129 92 120 109 85 71 64 58 62 62 61 65 66 62 59 7 299 286 283 279 271 277 292 304 309 310 306 300 297 295 294 298 301 307 310 313 314 314 315 314
49 124 149 220 227 290 351 238 268 116 112 111 103 91 75 60 58 55 54 51 51 51 50 38 338 297 286 279 274 272 280 289 295 298 302 304 300 295 290 289 294 298 301 303 305 307 309 311 312
197 56 14 94 50 47 217 274 131 144 164 119 94 82 73 66 63 58 54 52 45 38 31 23 12 358 338 321 304 294 291 292 292 290 290 292 294 290 287 284 285 288 291 295 299 301 305 307 309
136 129 59 333 56 276 276 271 236 186 220 135 111 85 72 79 75 66 55 45 29 16 8 358 352 345 338 330 324 321 317 312 306 299 295 290 287 287 286 284 282 282 284 287 291 295 299 303 303
129 234 338 82 160 197 276 258 306 215 180 151 165 135 90 82 70 52 29 11 358 342 340 338 334 329 323 318 314 311 308 307 306 306 306 303 295 291 285 283 282 281 280 281 284 289 294 298 300
359 299 191 144 259 223 166 270 325 189 140 149 159 149 139 116 95 19 342 333 327 327 328 328 327 326 323 319 316 312 309 302 298 299 302 304 304 303 300 289 282 279 278 279 281 285 289 293 296